Time,TemperatureF,DewpointF,PressureIn,WindDirection,WindDirectionDegrees,WindSpeedMPH,WindSpeedGustMPH,Humidity,HourlyPrecipIn,Conditions,Clouds,dailyrainin,SolarRadiationWatts/m^2,SoftwareType,DateUTC
2013-05-14 00:10:00,46.2,30.0,30.08,WSW,254,0.0,0.0,54,0.00,,,0.00,0,weatherlink.com 1.10,2013-05-14 04:10:00,
2013-05-14 00:25:00,46.1,30.0,30.07,WSW,254,0.0,0.0,54,0.00,,,0.00,0,weatherlink.com 1.10,2013-05-14 04:25:00,
2013-05-14 00:40:00,46.1,31.0,30.07,WSW,254,0.0,0.0,55,0.00,,,0.00,0,weatherlink.com 1.10,2013-05-14 04:40:00,
2013-05-14 00:55:00,46.3,30.0,30.07,WSW,254,0.0,1.0,53,0.00,,,0.00,0,weatherlink.com 1.10,2013-05-14 04:55:00,
2013-05-14 01:10:00,46.5,30.0,30.07,WSW,254,0.0,0.0,54,0.00,,,0.00,0,weatherlink.com 1.10,2013-05-14 05:10:00,
2013-05-14 01:25:00,46.7,31.0,30.06,WSW,254,0.0,0.0,54,0.00,,,0.00,0,weatherlink.com 1.10,2013-05-14 05:25:00,
2013-05-14 01:40:00,46.9,30.0,30.06,WSW,254,0.0,2.0,53,0.00,,,0.00,0,weatherlink.com 1.10,2013-05-14 05:40:00,
2013-05-14 01:55:00,47.0,31.0,30.05,WSW,254,1.0,2.0,54,0.00,,,0.00,0,weatherlink.com 1.10,2013-05-14 05:55:00,
2013-05-14 02:10:00,47.0,30.0,30.03,East,90,2.0,6.0,53,0.00,,,0.00,0,weatherlink.com 1.10,2013-05-14 06:10:00,
2013-05-14 02:25:00,47.0,30.0,30.02,East,87,3.0,5.0,52,0.00,,,0.00,0,weatherlink.com 1.10,2013-05-14 06:25:00,
2013-05-14 02:40:00,47.1,30.0,30.02,ESE,106,0.0,3.0,52,0.00,,,0.00,0,weatherlink.com 1.10,2013-05-14 06:40:00,
2013-05-14 02:55:00,47.2,30.0,30.02,ESE,107,0.0,2.0,52,0.00,,,0.00,0,weatherlink.com 1.10,2013-05-14 06:55:00,
2013-05-14 03:10:00,47.2,30.0,30.03,ESE,117,0.0,1.0,52,0.00,,,0.00,0,weatherlink.com 1.10,2013-05-14 07:10:00,
2013-05-14 03:25:00,47.2,31.0,30.02,ESE,115,0.0,2.0,53,0.00,,,0.00,0,weatherlink.com 1.10,2013-05-14 07:25:00,
2013-05-14 03:40:00,47.1,31.0,30.01,East,93,0.0,6.0,55,0.00,,,0.00,0,weatherlink.com 1.10,2013-05-14 07:40:00,
2013-05-14 03:55:00,46.9,31.0,30.00,East,98,0.0,6.0,54,0.00,,,0.00,0,weatherlink.com 1.10,2013-05-14 07:55:00,
2013-05-14 04:10:00,47.2,31.0,29.99,East,93,1.0,6.0,53,0.00,,,0.00,0,weatherlink.com 1.10,2013-05-14 08:10:00,
2013-05-14 04:25:00,47.4,31.0,29.98,ESE,112,1.0,3.0,53,0.00,,,0.00,0,weatherlink.com 1.10,2013-05-14 08:25:00,
2013-05-14 04:40:00,47.6,30.0,29.97,SE,126,0.0,4.0,51,0.00,,,0.00,0,weatherlink.com 1.10,2013-05-14 08:40:00,
2013-05-14 04:55:00,47.8,30.0,29.96,ESE,105,2.0,5.0,51,0.00,,,0.00,0,weatherlink.com 1.10,2013-05-14 08:55:00,
2013-05-14 05:10:00,48.2,30.0,29.95,ESE,117,3.0,3.0,49,0.00,,,0.00,0,weatherlink.com 1.10,2013-05-14 09:10:00,
2013-05-14 05:25:00,48.7,30.0,29.96,ENE,78,1.0,4.0,48,0.00,,,0.00,0,weatherlink.com 1.10,2013-05-14 09:25:00,
2013-05-14 05:40:00,49.0,30.0,29.95,ESE,115,3.0,6.0,49,0.00,,,0.00,0,weatherlink.com 1.10,2013-05-14 09:40:00,
2013-05-14 05:55:00,49.0,30.0,29.94,ENE,74,0.0,4.0,49,0.00,,,0.00,0,weatherlink.com 1.10,2013-05-14 09:55:00,
2013-05-14 06:10:00,48.9,31.0,29.94,ESE,123,0.0,2.0,50,0.00,,,0.00,0,weatherlink.com 1.10,2013-05-14 10:10:00,
2013-05-14 06:25:00,48.9,31.0,29.92,ENE,71,0.0,3.0,50,0.00,,,0.00,0,weatherlink.com 1.10,2013-05-14 10:25:00,
2013-05-14 06:40:00,49.1,31.0,29.92,South,173,0.0,4.0,50,0.00,,,0.00,12,weatherlink.com 1.10,2013-05-14 10:40:00,
2013-05-14 06:55:00,49.5,32.0,29.92,SSE,156,1.0,7.0,51,0.00,,,0.00,18,weatherlink.com 1.10,2013-05-14 10:55:00,
2013-05-14 07:10:00,50.1,32.0,29.91,SE,136,0.0,4.0,51,0.00,,,0.00,19,weatherlink.com 1.10,2013-05-14 11:10:00,
2013-05-14 07:25:00,50.5,33.0,29.90,SW,236,0.0,5.0,51,0.00,,,0.00,26,weatherlink.com 1.10,2013-05-14 11:25:00,
2013-05-14 07:40:00,50.8,33.0,29.90,SE,130,0.0,4.0,51,0.00,,,0.00,33,weatherlink.com 1.10,2013-05-14 11:40:00,
2013-05-14 07:55:00,51.3,34.0,29.88,SSW,196,3.0,7.0,52,0.00,,,0.00,109,weatherlink.com 1.10,2013-05-14 11:55:00,
2013-05-14 08:11:00,52.6,34.0,29.87,SW,215,0.0,10.0,50,0.00,,,0.00,118,weatherlink.com 1.10,2013-05-14 12:11:00,
2013-05-14 08:26:00,54.2,35.0,29.85,West,265,2.0,10.0,49,0.00,,,0.00,253,weatherlink.com 1.10,2013-05-14 12:26:00,
2013-05-14 08:41:00,55.6,37.0,29.86,ENE,76,0.0,8.0,49,0.00,,,0.00,105,weatherlink.com 1.10,2013-05-14 12:41:00,
2013-05-14 08:56:00,56.0,36.0,29.85,SSE,164,0.0,8.0,48,0.00,,,0.00,105,weatherlink.com 1.10,2013-05-14 12:56:00,
2013-05-14 09:11:00,57.8,37.0,29.83,South,186,1.0,13.0,47,0.00,,,0.00,508,weatherlink.com 1.10,2013-05-14 13:11:00,
2013-05-14 09:26:00,58.8,38.0,29.83,WSW,254,4.0,12.0,47,0.00,,,0.00,253,weatherlink.com 1.10,2013-05-14 13:26:00,
2013-05-14 09:41:00,59.0,39.0,29.83,SW,229,2.0,11.0,48,0.00,,,0.00,221,weatherlink.com 1.10,2013-05-14 13:41:00,
2013-05-14 09:56:00,59.3,40.0,29.81,SSW,208,7.0,11.0,50,0.00,,,0.00,309,weatherlink.com 1.10,2013-05-14 13:56:00,
2013-05-14 10:11:00,61.5,41.0,29.81,SW,235,8.0,8.0,48,0.00,,,0.00,636,weatherlink.com 1.10,2013-05-14 14:11:00,
2013-05-14 10:26:00,63.6,43.0,29.80,East,86,3.0,11.0,47,0.00,,,0.00,650,weatherlink.com 1.10,2013-05-14 14:26:00,
2013-05-14 10:41:00,63.6,43.0,29.80,West,276,0.0,12.0,47,0.00,,,0.00,403,weatherlink.com 1.10,2013-05-14 14:41:00,
2013-05-14 10:56:00,65.4,44.0,29.79,WSW,250,5.0,12.0,47,0.00,,,0.00,510,weatherlink.com 1.10,2013-05-14 14:56:00,
2013-05-14 11:11:00,66.1,46.0,29.79,SSW,206,3.0,11.0,48,0.00,,,0.00,791,weatherlink.com 1.10,2013-05-14 15:11:00,
2013-05-14 11:26:00,67.6,47.0,29.78,WSW,251,8.0,12.0,48,0.00,,,0.00,503,weatherlink.com 1.10,2013-05-14 15:26:00,
2013-05-14 11:41:00,68.3,47.0,29.78,WSW,237,4.0,11.0,47,0.00,,,0.00,819,weatherlink.com 1.10,2013-05-14 15:41:00,
2013-05-14 11:56:00,69.0,48.0,29.79,South,171,2.0,10.0,47,0.00,,,0.00,840,weatherlink.com 1.10,2013-05-14 15:56:00,
2013-05-14 12:11:00,69.8,48.0,29.79,SW,215,4.0,10.0,46,0.00,,,0.00,865,weatherlink.com 1.10,2013-05-14 16:11:00,
2013-05-14 12:26:00,71.0,50.0,29.80,NW,314,5.0,14.0,48,0.00,,,0.00,881,weatherlink.com 1.10,2013-05-14 16:26:00,
2013-05-14 12:41:00,71.2,50.0,29.80,WSW,248,3.0,13.0,48,0.00,,,0.00,911,weatherlink.com 1.10,2013-05-14 16:41:00,
2013-05-14 12:56:00,71.7,51.0,29.79,WSW,252,9.0,14.0,49,0.00,,,0.00,918,weatherlink.com 1.10,2013-05-14 16:56:00,
2013-05-14 13:12:00,71.8,52.0,29.79,West,276,8.0,14.0,50,0.00,,,0.00,909,weatherlink.com 1.10,2013-05-14 17:12:00,
2013-05-14 13:27:00,72.2,52.0,29.78,SW,215,7.0,16.0,49,0.00,,,0.00,914,weatherlink.com 1.10,2013-05-14 17:27:00,
2013-05-14 13:42:00,71.6,52.0,29.77,NW,314,3.0,12.0,50,0.00,,,0.00,918,weatherlink.com 1.10,2013-05-14 17:42:00,
2013-05-14 13:57:00,71.8,52.0,29.78,WSW,242,6.0,15.0,50,0.00,,,0.00,916,weatherlink.com 1.10,2013-05-14 17:57:00,
2013-05-14 14:12:00,72.9,53.0,29.77,West,263,10.0,16.0,49,0.00,,,0.00,912,weatherlink.com 1.10,2013-05-14 18:12:00,
2013-05-14 14:27:00,73.4,53.0,29.76,SW,229,8.0,12.0,49,0.00,,,0.00,905,weatherlink.com 1.10,2013-05-14 18:27:00,
2013-05-14 14:42:00,73.2,53.0,29.76,SW,226,4.0,12.0,50,0.00,,,0.00,902,weatherlink.com 1.10,2013-05-14 18:42:00,
2013-05-14 14:57:00,73.4,52.0,29.76,WSW,244,5.0,14.0,48,0.00,,,0.00,877,weatherlink.com 1.10,2013-05-14 18:57:00,
2013-05-14 15:12:00,74.1,54.0,29.76,WSW,254,4.0,15.0,49,0.00,,,0.00,863,weatherlink.com 1.10,2013-05-14 19:12:00,
2013-05-14 15:27:00,74.6,54.0,29.77,SW,225,7.0,10.0,48,0.00,,,0.00,844,weatherlink.com 1.10,2013-05-14 19:27:00,
2013-05-14 15:42:00,74.6,54.0,29.76,West,277,8.0,12.0,49,0.00,,,0.00,459,weatherlink.com 1.10,2013-05-14 19:42:00,
2013-05-14 15:57:00,74.8,54.0,29.76,West,275,6.0,11.0,49,0.00,,,0.00,782,weatherlink.com 1.10,2013-05-14 19:57:00,
2013-05-14 16:12:00,74.5,53.0,29.77,West,261,5.0,14.0,48,0.00,,,0.00,394,weatherlink.com 1.10,2013-05-14 20:12:00,
2013-05-14 16:27:00,74.4,54.0,29.78,West,273,4.0,11.0,49,0.00,,,0.00,343,weatherlink.com 1.10,2013-05-14 20:27:00,
2013-05-14 16:42:00,73.2,54.0,29.77,West,275,4.0,10.0,51,0.00,,,0.00,487,weatherlink.com 1.10,2013-05-14 20:42:00,
2013-05-14 16:57:00,72.9,54.0,29.78,West,260,6.0,9.0,51,0.00,,,0.00,156,weatherlink.com 1.10,2013-05-14 20:57:00,
2013-05-14 17:12:00,71.5,53.0,29.75,West,266,3.0,10.0,52,0.00,,,0.00,183,weatherlink.com 1.10,2013-05-14 21:12:00,
2013-05-14 17:27:00,71.1,53.0,29.77,SW,227,6.0,13.0,53,0.00,,,0.00,185,weatherlink.com 1.10,2013-05-14 21:27:00,
2013-05-14 17:42:00,70.8,53.0,29.76,West,272,3.0,9.0,54,0.00,,,0.00,279,weatherlink.com 1.10,2013-05-14 21:42:00,
2013-05-14 17:57:00,72.3,54.0,29.73,SW,228,5.0,7.0,52,0.00,,,0.00,494,weatherlink.com 1.10,2013-05-14 21:57:00,
2013-05-14 18:12:00,73.0,54.0,29.73,South,191,1.0,6.0,51,0.00,,,0.00,438,weatherlink.com 1.10,2013-05-14 22:12:00,
2013-05-14 18:27:00,73.3,54.0,29.73,WSW,242,2.0,5.0,51,0.00,,,0.00,116,weatherlink.com 1.10,2013-05-14 22:27:00,
2013-05-14 18:42:00,72.6,53.0,29.73,WSW,244,0.0,4.0,51,0.00,,,0.00,113,weatherlink.com 1.10,2013-05-14 22:42:00,
2013-05-14 18:57:00,71.9,53.0,29.71,SW,232,2.0,7.0,51,0.00,,,0.00,123,weatherlink.com 1.10,2013-05-14 22:57:00,
2013-05-14 19:13:00,71.3,53.0,29.70,WSW,238,0.0,4.0,52,0.00,,,0.00,37,weatherlink.com 1.10,2013-05-14 23:13:00,
2013-05-14 19:28:00,71.0,53.0,29.71,SW,236,0.0,3.0,54,0.00,,,0.00,98,weatherlink.com 1.10,2013-05-14 23:28:00,
2013-05-14 19:43:00,71.0,55.0,29.72,SW,236,0.0,4.0,57,0.00,,,0.00,120,weatherlink.com 1.10,2013-05-14 23:43:00,
2013-05-14 19:58:00,71.2,55.0,29.73,SW,236,0.0,1.0,56,0.00,,,0.00,46,weatherlink.com 1.10,2013-05-14 23:58:00,
2013-05-14 20:13:00,70.8,55.0,29.70,SW,236,0.0,0.0,58,0.00,,,0.00,51,weatherlink.com 1.10,2013-05-15 00:13:00,
2013-05-14 20:28:00,70.1,54.0,29.68,SW,236,0.0,1.0,58,0.00,,,0.00,18,weatherlink.com 1.10,2013-05-15 00:28:00,
2013-05-14 20:43:00,69.3,54.0,29.68,SW,236,0.0,2.0,58,0.00,,,0.00,12,weatherlink.com 1.10,2013-05-15 00:43:00,
2013-05-14 20:58:00,68.8,54.0,29.68,SW,236,0.0,2.0,60,0.00,,,0.00,0,weatherlink.com 1.10,2013-05-15 00:58:00,
2013-05-14 21:13:00,68.3,54.0,29.67,SW,236,0.0,0.0,61,0.00,,,0.00,0,weatherlink.com 1.10,2013-05-15 01:13:00,
2013-05-14 21:28:00,67.7,54.0,29.68,SW,236,0.0,0.0,62,0.00,,,0.00,0,weatherlink.com 1.10,2013-05-15 01:28:00,
2013-05-14 21:43:00,67.1,54.0,29.68,SW,236,0.0,0.0,64,0.00,,,0.00,0,weatherlink.com 1.10,2013-05-15 01:43:00,
2013-05-14 21:58:00,66.3,55.0,29.67,SW,236,0.0,0.0,67,0.00,,,0.00,0,weatherlink.com 1.10,2013-05-15 01:58:00,
2013-05-14 22:13:00,65.1,54.0,29.67,SW,236,0.0,0.0,68,0.00,,,0.00,0,weatherlink.com 1.10,2013-05-15 02:13:00,
2013-05-14 22:28:00,64.1,54.0,29.68,SW,236,0.0,0.0,70,0.00,,,0.00,0,weatherlink.com 1.10,2013-05-15 02:28:00,
2013-05-14 22:43:00,63.5,54.0,29.68,SW,236,0.0,0.0,72,0.00,,,0.00,0,weatherlink.com 1.10,2013-05-15 02:43:00,
2013-05-14 22:58:00,62.9,54.0,29.67,SW,236,2.0,3.0,73,0.00,,,0.00,0,weatherlink.com 1.10,2013-05-15 02:58:00,
2013-05-14 23:13:00,62.4,54.0,29.67,SW,236,0.0,2.0,74,0.00,,,0.00,0,weatherlink.com 1.10,2013-05-15 03:13:00,
2013-05-14 23:28:00,62.4,54.0,29.66,SW,236,0.0,3.0,75,0.00,,,0.00,0,weatherlink.com 1.10,2013-05-15 03:28:00,
2013-05-14 23:43:00,62.7,54.0,29.64,SW,236,2.0,3.0,74,0.00,,,0.00,0,weatherlink.com 1.10,2013-05-15 03:43:00,
2013-05-14 23:58:00,63.2,54.0,29.62,ESE,119,0.0,5.0,73,0.00,,,0.00,0,weatherlink.com 1.10,2013-05-15 03:58:00,